Location: Scottsdale
(33.5090°N, 111.8980°W)
Time: 03:12:06
(UTC-07:00)

ISS - Visible Passes

Search period start: 28 April 2017 00:00
Search period end: 08 May 2017 00:00
Orbit: 401 x 409 km, 51.6° (Epoch: 29 April)

Date Brightness Start Highest point End Pass type
(mag) Time Alt. Az. Time Alt. Az. Time Alt. Az.
03 May -2.0 04:24:24 13° S 04:26:35 25° SE 04:29:19 10° ENE visible
04 May -1.0 03:34:38 12° SE 03:34:39 12° SE 03:35:55 10° ESE visible
05 May -3.8 04:17:25 34° SW 04:18:40 78° SE 04:21:56 10° NE visible
06 May -2.1 03:27:27 28° E 03:27:27 28° E 03:29:36 10° ENE visible
06 May -1.9 05:00:40 10° W 05:03:09 20° NW 05:05:38 10° NNE visible
07 May -2.8 04:10:02 30° WNW 04:10:52 35° NW 04:13:55 10° NNE visible
